Kingsville NAS, TX

7:47 AM CDT on April 21, 2018 (GMT -0500)
Kingsville Naval Air Station

Weather History for KNQI - November, 2013

Change the Weather History Date:

Saturday, November 2, 2013

  Actual Average Record
Temperature  
Mean Temperature 70 °F -  
Max Temperature 82 °F 77 °F 93 °F (2017)
Min Temperature 55 °F 57 °F 43 °F (2005)
Cooling Degree Days 4    
Growing Degree Days 20 (Base 50)    
Moisture  
Dew Point 42 °F    
Average Humidity 44    
Maximum Humidity 67    
Minimum Humidity 16    
Precipitation  
Precipitation 0.00 in - - ()
Sea Level Pressure  
Sea Level Pressure 30.17 in    
Wind  
Wind Speed 11 mph (North)    
Max Wind Speed 18 mph    
Max Gust Speed 24 mph    
Visibility 10 miles    
Events      
Averages and records for this station are not official NWS values.
T = Trace of Precipitation, MM = Missing Value Source: NWS Daily Summary

Daily Weather History Graph

Daily Weather History Graph

Search for Another Location

Airport or City:

Astronomy

Nov. 02, 2013 Rise Set
Actual Time 7:42 AM CDT 6:46 PM CDT
Civil Twilight 7:18 AM CDT 7:10 PM CDT
Nautical Twilight 6:50 AM CDT 7:38 PM CDT
Astronomical Twilight 6:23 AM CDT 8:05 PM CDT
Moon 6:45 AM CDT (11/2) 6:17 PM CDT (11/2)
Length of Visible Light 11h 52m
Length of Day
11h 03m
Waning Crescent, 1% of the Moon is Illuminated
Nov 2
Waning Crescent
Nov 3
New
Nov 9
First Quarter
Nov 17
Full
Nov 25
Last Quarter

Hourly Weather History & Observations

Time (CDT) Temp. Dew Point Humidity Pressure Visibility Wind Dir Wind Speed Gust Speed Precip Events Conditions
12:56 AM 70.0 °F 55.0 °F 59% 30.02 in 10.0 mi North 12.7 mph - N/A   Clear
1:56 AM 66.9 °F 48.9 °F 52% 30.06 in 10.0 mi North 10.4 mph - N/A   Clear
2:56 AM 63.0 °F 50.0 °F 63% 30.08 in 10.0 mi North 9.2 mph - N/A   Clear
3:56 AM 60.1 °F 48.0 °F 64% 30.09 in 10.0 mi North 8.1 mph - N/A   Clear
4:56 AM 60.1 °F 48.0 °F 64% 30.11 in 10.0 mi North 8.1 mph - N/A   Clear
5:56 AM 59.0 °F 48.0 °F 67% 30.12 in 10.0 mi North 9.2 mph - N/A   Clear
6:56 AM 57.9 °F 46.9 °F 67% 30.15 in 10.0 mi North 8.1 mph - N/A   Clear
7:56 AM 59.0 °F 48.0 °F 67% 30.19 in 10.0 mi North 10.4 mph - N/A   Clear
8:56 AM 63.0 °F 48.0 °F 58% 30.22 in 10.0 mi North 9.2 mph - N/A   Clear
9:56 AM 66.9 °F 46.9 °F 49% 30.24 in 10.0 mi NNE 17.3 mph - N/A   Clear
10:56 AM 72.0 °F 44.1 °F 37% 30.25 in 10.0 mi NNE 18.4 mph 24.2 mph N/A   Clear
11:56 AM 75.9 °F 41.0 °F 29% 30.24 in 10.0 mi NNE 18.4 mph 24.2 mph N/A   Clear
12:56 PM 79.0 °F 39.0 °F 24% 30.22 in 10.0 mi NNE 15.0 mph 23.0 mph N/A   Clear
1:56 PM 80.1 °F 34.0 °F 19% 30.19 in 10.0 mi NNE 16.1 mph 23.0 mph N/A   Clear
2:56 PM 82.0 °F 32.0 °F 16% 30.16 in 10.0 mi NNE 15.0 mph 23.0 mph N/A   Clear
3:56 PM 82.0 °F 33.1 °F 17% 30.15 in 10.0 mi NNE 13.8 mph 23.0 mph N/A   Clear
4:56 PM 80.1 °F 33.1 °F 18% 30.14 in 10.0 mi NNE 16.1 mph 23.0 mph N/A   Clear
5:56 PM 78.1 °F 34.0 °F 20% 30.15 in 10.0 mi NE 10.4 mph - N/A   Clear
6:56 PM 71.1 °F 37.0 °F 29% 30.17 in 10.0 mi NNE 6.9 mph - N/A   Clear
7:56 PM 66.0 °F 39.0 °F 37% 30.18 in 10.0 mi North 8.1 mph - N/A   Clear
8:56 PM 63.0 °F 39.0 °F 41% 30.20 in 10.0 mi NNE 5.8 mph - N/A   Clear
9:56 PM 61.0 °F 39.0 °F 44% 30.21 in 10.0 mi North 6.9 mph - N/A   Clear
10:56 PM 57.0 °F 39.0 °F 51% 30.22 in 10.0 mi North 6.9 mph - N/A   Clear
11:56 PM 55.9 °F 39.0 °F 53% 30.22 in 10.0 mi NNW 6.9 mph - N/A   Clear